Location: Staunton
(38.1490°N, 79.0720°W)
Time: 14:48:24
(UTC-04:00)

ISS - Pass Details

Date: 20 July 2019
Orbit: 409 x 418 km, 51.6° (Epoch: 20 July)

Event Time Altitude Azimuth Distance (km) Brightness Sun altitude
Exits shadow 04:59:59 15° 193° (SSW) 1,200 -1.9 -12.2°
Drops below altitude 10° 05:00:56 10° 179° (S) 1,462 -1.4 -12.0°
Sets 05:03:21 0° 162° (SSE) 2,317 -0.2 -11.7°
